This demonstration page uses our WeatherBlox Daily Observations layout. Learn more.

Left ArrowRight Arrow

53.62937, 11.41316

Hourly Observations for June 15, 2017

Temp ( °F °C ) Dew Point ( °F °C ) Humidity (%) Winds ( mph kmh ) Pressure ( in mb ) Visibility ( mi km ) Precip ( " mm )
6:20 am 06:20 Mostly Sunny 54 12 54 12 100 100 ENE 5 7 30.06 1018 7 11 N/A
6:50 am 06:50 Mostly Sunny 57 14 57 14 100 100 VRB 1 2 30.06 1018 7 11 N/A
7:20 am 07:20 Mostly Sunny 61 16 55 13 83 83 E 3 6 30.06 1018 7 11 N/A
7:50 am 07:50 Mostly Sunny 64 18 55 13 73 73 SE 5 7 30.06 1018 7 11 N/A
8:20 am 08:20 Mostly Sunny 66 19 55 13 68 68 SSE 5 7 30.06 1018 7 11 N/A
8:50 am 08:50 Mostly Sunny 68 20 55 13 64 64 SSE 5 7 30.06 1018 7 11 N/A
9:20 am 09:20 Mostly Sunny 68 20 55 13 64 64 SSE 9 15 30.06 1018 7 11 N/A
9:50 am 09:50 Mostly Sunny 68 20 54 12 60 60 SE 9 15 30.06 1018 7 11 N/A
10:20 am 10:20 Mostly Sunny 70 21 57 14 64 64 SE 8 13 30.06 1018 7 11 N/A
10:50 am 10:50 Mostly Sunny 70 21 55 13 60 60 SSE 8 13 30.06 1018 7 11 N/A
11:20 am 11:20 Mostly Sunny 72 22 54 12 53 53 SSE 9 15 30.06 1018 7 11 N/A
11:50 am 11:50 Mostly Sunny 72 22 54 12 53 53 SE 9 15 30.03 1017 7 11 N/A
12:20 pm 12:20 Mostly Sunny 72 22 54 12 53 53 SSE 8 13 30.03 1017 7 11 N/A
12:50 pm 12:50 Mostly Sunny 73 23 54 12 50 50 SSE 10 17 30.00 1016 30 48 N/A
1:20 pm 13:20 Mostly Sunny 73 23 54 12 50 50 SSE 8 13 30.00 1016 7 11 N/A
1:50 pm 13:50 Mostly Sunny 75 24 54 12 47 47 VRB 5 7 30.00 1016 7 11 N/A
2:20 pm 14:20 Mostly Sunny 77 25 54 12 44 44 SSE 8 13 29.97 1015 7 11 N/A
2:50 pm 14:50 Mostly Sunny 77 25 55 13 47 47 SSE 10 17 29.97 1015 7 11 N/A
3:20 pm 15:20 Mostly Sunny 77 25 54 12 44 44 SSE 8 13 29.97 1015 7 11 N/A
3:50 pm 15:50 Mostly Sunny 79 26 54 12 42 42 S 8 13 29.94 1014 7 11 N/A
4:20 pm 16:20 Mostly Sunny 79 26 52 11 39 39 VRB 9 15 29.94 1014 7 11 N/A
4:50 pm 16:50 Mostly Sunny 77 25 52 11 42 42 S 7 11 29.94 1014 7 11 N/A
5:20 pm 17:20 Mostly Sunny 77 25 54 12 44 44 S 7 11 29.91 1013 7 11 N/A
5:50 pm 17:50 Mostly Sunny 77 25 54 12 44 44 SSE 6 9 29.91 1013 7 11 N/A

Powered by AerisWeather